EHI
13 19 30 37 25 7 1 0 0 0 0 0 0 0 0 0 0 0 1 2 4 3 1 0 0 0 0 1 2 2 1 0 0 0 0 0 0 0 0 0 0 1 2 1 1 1 2 2 1
18 25 32 31 17 4 0 0 0 0 0 0 0 0 0 0 0 0 1 2 4 3 2 1 0 0 0 0 1 1 0 1 1 1 1 0 0 0 0 0 0 1 2 2 1 2 3 2 1
24 27 27 18 7 1 0 0 0 0 0 0 1 1 0 0 0 0 1 2 4 4 3 2 0 0 1 0 0 0 1 2 2 2 1 0 0 0 0 0 0 1 2 2 1 1 2 2 1
26 24 17 8 2 0 0 0 0 0 0 1 2 2 1 1 0 1 2 2 3 4 3 2 1 0 0 0 0 0 1 2 2 2 1 0 0 0 0 0 0 1 1 1 1 0 1 1 1
24 18 9 3 0 0 0 0 0 0 0 1 3 3 3 2 1 1 2 2 3 4 3 3 2 1 1 1 1 0 0 1 1 1 0 0 0 0 0 0 0 1 1 1 1 1 0 0 0
17 11 4 1 0 0 0 0 0 0 0 2 3 3 3 2 1 0 1 2 2 3 4 4 4 3 3 3 2 1 0 1 2 2 1 0 0 0 0 0 0 0 1 1 1 1 0 0 0
10 5 1 0 0 0 0 0 0 0 0 1 2 3 3 2 1 1 2 2 1 2 3 3 3 4 5 4 3 1 1 3 5 5 3 2 1 0 0 0 0 0 0 0 1 1 0 0 0
4 2 0 0 0 0 0 0 0 0 0 0 1 3 3 2 1 2 3 2 1 1 2 3 4 4 5 4 4 4 3 3 4 5 4 2 1 0 0 0 0 0 0 0 0 0 0 0 1
1 0 0 0 0 0 0 0 0 1 1 1 1 3 3 2 2 2 2 2 2 2 2 3 4 4 3 4 5 6 4 3 3 3 3 2 1 1 0 0 1 1 1 1 1 1 1 1 2
0 0 0 0 0 1 0 0 0 0 1 2 3 3 2 2 2 2 1 1 1 2 3 3 4 3 2 2 4 4 3 3 2 3 4 3 2 1 0 1 3 3 3 3 3 2 2 2 2
0 0 0 0 0 0 0 0 0 0 1 3 3 2 1 1 2 1 0 0 1 2 2 2 3 3 3 2 1 1 2 3 3 4 6 5 3 1 1 2 4 4 4 4 4 4 2 1 1
0 0 0 0 0 0 0 0 0 1 3 3 2 1 1 0 0 0 0 1 2 2 1 1 2 4 5 4 2 1 1 2 3 4 6 5 2 2 3 3 3 4 4 4 4 4 2 1 1
0 0 0 0 0 0 0 0 0 2 4 4 2 1 1 1 0 0 1 2 4 4 2 1 2 5 8 9 7 3 1 1 1 3 5 5 4 3 3 3 3 2 2 3 4 2 2 1 1
0 0 0 0 0 0 0 0 1 2 4 4 2 2 2 1 1 1 1 3 5 5 3 2 4 8 11 12 10 5 2 2 2 3 5 5 5 6 6 5 3 3 3 4 3 2 1 2 2
0 0 0 0 0 0 0 0 1 2 2 1 2 3 4 3 3 2 3 3 5 7 6 4 7 11 13 13 10 6 3 3 4 5 6 6 5 7 8 6 4 4 5 6 4 3 2 2 2
0 0 0 0 0 0 0 0 1 1 1 0 1 4 5 5 4 3 3 4 7 10 10 8 10 14 15 13 10 6 5 6 6 6 6 6 5 6 7 6 5 5 6 7 5 3 3 3 3
0 0 0 0 0 0 0 0 1 1 1 2 2 4 6 7 5 4 4 7 12 15 15 13 13 15 16 13 10 8 8 9 7 6 6 7 6 5 5 5 5 5 6 6 4 4 4 5 5
0 0 0 0 0 0 0 0 0 1 2 3 4 6 7 8 8 6 6 11 17 22 24 20 17 17 17 16 14 11 9 8 8 8 8 8 6 5 5 5 5 5 5 5 4 5 6 6 6
0 0 0 0 0 0 0 0 0 0 1 4 7 8 9 11 13 13 12 16 22 29 32 28 22 21 20 19 18 14 9 8 10 11 11 8 5 5 6 6 5 5 6 7 6 6 7 7 6
0 0 0 0 0 0 0 0 0 1 2 4 7 9 10 14 19 21 19 21 27 34 37 33 27 24 21 20 18 13 9 8 10 13 13 9 5 5 7 6 6 5 7 9 7 6 6 6 5
0 0 0 0 0 0 0 0 1 2 2 4 7 8 9 13 21 26 25 25 29 36 37 34 32 28 20 17 15 12 8 7 8 14 16 12 9 8 8 7 7 7 8 9 9 8 7 6 6
0 0 0 0 0 0 0 0 1 3 4 4 5 7 7 10 18 25 27 28 31 35 36 38 38 31 19 13 12 10 8 6 7 13 17 17 15 13 11 10 10 10 9 9 10 9 8 8 6
0 0 0 0 0 0 0 0 2 6 7 5 4 6 6 9 16 22 28 32 32 32 35 40 41 33 20 12 10 9 8 7 8 11 14 18 20 18 15 13 13 12 11 10 10 9 9 8 6
0 0 0 0 0 0 0 0 3 7 8 6 5 6 7 9 14 21 28 34 33 31 33 39 43 37 26 16 11 10 9 8 7 8 12 17 21 22 19 15 13 12 12 11 10 9 9 8 6
0 0 0 0 0 0 0 0 2 5 6 6 6 6 7 9 13 20 29 35 36 33 35 41 46 43 34 24 16 14 12 9 8 9 12 15 20 24 23 19 14 10 9 10 9 8 9 8 7
0 0 0 0 0 0 0 0 1 2 4 5 4 5 7 9 13 20 28 35 37 37 39 45 49 46 41 34 27 23 19 16 16 17 16 16 18 23 25 22 16 10 7 7 7 8 9 8 7
0 0 0 0 0 0 0 0 1 2 4 4 3 3 6 9 12 19 27 33 36 38 42 47 50 49 45 42 37 33 29 26 25 25 23 20 19 20 23 22 17 13 10 9 9 9 9 8 8
0 0 0 0 0 0 0 1 2 3 4 4 4 5 6 9 12 18 26 32 35 37 41 47 51 50 46 43 40 38 35 30 26 27 26 24 22 20 21 21 19 17 16 16 14 13 12 11 10
0 0 0 0 0 0 0 1 2 2 3 3 5 8 9 10 13 18 27 33 35 36 39 46 52 51 44 41 41 39 36 32 26 25 26 26 25 24 23 20 19 20 22 22 19 16 14 12 11
0 0 0 0 0 0 0 1 2 1 1 3 6 10 11 12 14 20 27 34 35 35 38 43 51 50 43 41 41 38 36 33 28 25 26 26 27 28 25 20 19 20 24 25 21 16 13 12 12
Wind_Speed
10 10 9 5 3 1 11 13 13 13 14 13 13 12 15 14 11 10 7 7 10 10 9 10 11 12 13 13 13 13 13 13 13 13 13 14 14 14 14 13 13 13 12 11 11 11 12 12 11
10 11 8 4 1 6 12 11 13 13 12 11 13 14 15 16 13 11 8 7 10 11 9 11 12 12 13 13 12 12 13 13 12 13 13 13 13 13 13 13 13 12 11 11 10 11 12 12 11
12 12 5 1 5 10 12 11 11 12 10 11 13 14 13 12 12 9 9 9 11 11 11 11 12 12 12 12 12 12 12 12 12 12 12 13 13 13 13 13 12 11 11 10 10 11 12 12 10
7 5 3 2 12 14 12 10 11 11 11 11 12 12 13 12 11 11 11 10 11 12 12 12 13 13 12 12 11 11 11 12 12 12 12 12 13 13 12 12 12 11 10 10 11 11 12 10 9
8 4 1 7 13 13 11 11 11 11 12 14 16 15 14 13 12 12 11 10 11 13 12 12 13 13 12 11 11 11 11 11 12 12 12 12 12 12 12 12 11 11 11 10 11 11 10 9 7
5 2 3 8 13 13 11 11 13 13 13 15 16 15 13 12 11 10 11 10 11 13 13 12 13 13 11 11 11 11 10 11 11 11 11 11 11 12 11 11 11 11 11 10 10 10 9 8 6
4 2 6 10 11 12 12 11 12 12 12 12 15 14 12 11 10 11 10 9 10 12 13 11 11 10 11 11 10 10 10 10 9 9 10 11 11 11 11 10 10 11 11 10 9 9 8 7 5
3 2 7 10 11 12 12 12 12 13 12 11 11 12 12 11 10 11 10 10 10 9 10 10 11 9 9 9 10 10 10 9 8 8 9 10 11 11 11 10 10 10 10 9 8 8 7 5 4
2 3 7 9 10 11 11 11 13 13 13 13 15 16 15 13 11 11 9 9 8 8 7 8 10 9 8 9 10 9 9 8 8 7 8 7 6 8 8 10 11 9 9 8 8 7 6 4 4
3 7 9 10 11 11 10 11 12 13 13 15 16 16 14 12 10 9 9 9 8 7 7 7 7 6 5 6 6 5 5 5 3 3 5 4 3 3 7 10 10 9 8 7 7 6 6 5 3
6 9 10 11 12 12 10 10 11 12 13 14 14 14 13 11 9 9 9 10 8 6 6 7 7 5 5 4 4 2 3 4 3 3 3 3 3 3 5 4 5 5 6 4 6 6 4 4 3
7 9 9 11 9 11 10 11 13 13 14 15 14 13 11 10 9 8 9 9 8 6 6 6 7 6 5 4 3 3 2 3 3 3 2 3 2 2 3 2 3 3 2 3 3 2 3 2 1
6 7 9 9 9 11 12 11 13 15 14 15 14 12 11 10 10 9 8 8 8 7 7 7 6 6 4 3 2 3 3 3 4 3 2 3 2 2 2 1 1 1 2 3 2 2 2 1 1
5 7 8 8 9 10 12 10 11 13 14 14 13 11 10 9 10 9 8 8 7 7 7 6 6 5 4 2 1 2 3 3 3 3 3 3 2 2 1 2 1 1 1 2 1 1 2 2 1
3 5 6 6 8 9 10 9 9 12 13 13 12 11 10 9 9 8 8 7 8 7 7 6 7 6 3 2 1 1 2 3 3 3 3 2 2 2 1 1 1 1 1 2 2 2 1 2 2
2 2 3 6 7 8 7 8 11 12 12 12 11 11 10 9 9 9 8 7 7 7 6 3 5 7 4 2 1 2 2 3 2 2 2 2 1 1 1 1 1 1 1 1 2 1 1 1 1
3 4 6 6 6 7 6 9 12 12 12 12 11 11 11 10 9 9 9 8 7 7 6 4 4 5 4 3 1 1 2 2 2 2 2 2 1 1 1 1 1 1 0 1 1 2 1 1 1
4 6 6 5 6 4 5 9 12 13 13 12 12 11 11 11 10 9 9 9 8 7 6 5 4 4 3 2 1 1 1 1 1 2 1 2 1 1 1 1 1 1 1 1 1 1 1 1 1
8 7 5 4 6 3 5 8 11 13 12 12 12 12 11 11 12 11 10 10 9 7 6 5 4 4 2 1 1 1 1 1 1 1 2 2 1 2 2 1 1 0 1 1 1 1 0 1 1
10 8 4 3 6 4 3 4 9 11 12 12 12 12 13 12 12 11 10 10 9 8 7 6 5 5 3 2 1 1 1 1 1 1 2 1 1 1 1 1 1 1 1 1 0 1 0 1 1
9 7 4 5 5 4 3 4 7 10 11 12 12 13 13 14 14 13 12 11 11 10 8 6 5 5 3 3 2 1 1 0 1 2 1 0 1 1 2 2 2 1 1 1 0 1 0 0 1
8 6 6 8 7 4 6 4 6 11 11 12 12 13 14 14 14 14 13 12 11 11 9 7 6 5 4 2 2 2 2 1 1 1 2 1 1 1 1 2 1 1 1 1 1 2 1 1 1
8 7 8 10 9 6 6 4 5 8 10 12 13 13 14 15 14 14 13 12 12 11 10 9 7 6 4 3 2 1 1 1 1 2 2 1 1 1 1 1 1 1 2 2 2 2 1 1 1
9 9 10 10 9 8 8 6 5 8 12 13 14 14 14 15 15 14 14 13 11 11 11 10 8 6 5 4 3 2 1 1 1 1 1 1 1 1 1 2 2 2 1 1 1 1 1 1 2
11 8 7 6 6 7 8 6 5 9 11 13 14 14 14 14 14 14 14 14 12 11 11 11 9 7 6 5 3 3 2 1 1 0 1 1 1 2 1 2 2 1 1 1 1 1 1 2 2
12 12 9 7 7 6 7 5 4 8 9 11 13 14 13 14 13 14 14 13 12 12 11 11 10 8 7 5 4 3 3 2 1 0 0 1 1 2 2 2 2 1 1 2 1 1 1 2 2
14 12 12 10 11 8 5 4 5 8 10 12 12 15 14 13 14 14 14 14 13 12 11 11 10 8 7 6 5 4 2 1 1 1 0 1 1 2 3 2 2 2 2 2 2 1 2 2 1
14 11 8 9 8 8 5 5 5 10 11 12 12 13 14 14 14 14 13 12 12 12 11 11 10 9 8 7 6 5 4 2 1 1 2 2 2 2 2 2 2 2 2 2 1 1 2 1 1
14 14 10 8 9 7 6 2 4 8 10 11 13 13 13 13 14 14 13 12 12 12 12 11 11 9 8 7 5 5 5 4 3 2 2 2 1 2 1 1 1 1 2 1 1 1 1 1 1
14 14 12 9 7 6 6 2 3 7 10 10 11 13 13 12 13 13 13 13 12 11 11 11 11 10 9 7 6 5 4 4 3 3 2 2 2 2 2 1 1 1 2 1 1 1 1 1 2
Wind_Direction
191 207 213 233 251 105 65 60 62 66 64 59 59 62 57 54 63 84 96 87 92 91 90 82 73 78 82 83 85 87 90 90 93 95 96 98 102 105 107 109 112 114 114 114 116 120 119 115 115
215 215 221 238 235 71 68 65 66 69 73 77 71 71 69 68 78 94 95 91 94 94 90 86 84 83 85 84 87 90 92 92 94 97 99 102 103 105 107 111 112 113 113 113 116 120 121 118 119
247 251 254 232 61 68 72 75 80 81 78 81 77 64 62 78 84 95 101 100 92 92 92 93 92 90 90 88 89 92 93 95 100 103 103 103 103 104 108 109 108 107 107 111 114 118 122 122 123
246 242 241 62 71 73 78 82 84 87 85 82 85 78 71 79 94 105 110 104 101 101 98 97 96 95 95 93 90 93 96 97 102 105 106 107 107 108 109 110 109 105 104 104 106 111 117 120 123
239 269 92 77 75 75 75 79 83 82 83 83 85 89 86 88 98 108 109 105 106 103 104 103 101 98 95 94 94 93 95 98 103 104 107 110 112 112 112 113 113 110 107 105 106 110 115 120 124
261 239 88 81 77 75 77 82 84 83 87 94 96 96 95 105 106 108 107 107 107 106 105 108 106 104 101 98 98 97 99 102 104 108 114 116 118 116 116 115 115 114 112 110 111 116 119 120 123
245 54 84 85 84 79 75 79 85 87 85 90 102 100 107 111 110 108 105 103 103 106 111 116 119 113 110 106 104 104 105 110 111 115 122 126 126 125 125 123 120 119 119 119 120 124 126 131 139
237 91 83 86 90 86 85 83 86 86 80 84 101 104 112 112 114 110 108 103 100 102 111 121 121 120 127 121 119 118 117 119 121 122 125 131 137 137 133 130 125 125 127 130 132 132 135 144 162
343 73 75 87 94 94 94 93 92 90 90 81 80 97 112 119 117 114 107 98 93 97 101 111 116 125 129 125 126 135 132 130 130 136 140 143 150 145 145 129 133 135 138 142 145 147 154 169 195
82 87 81 86 94 98 94 96 104 104 96 92 92 100 112 117 117 113 111 108 100 97 102 99 99 109 114 112 128 146 140 137 151 127 139 147 139 131 131 133 143 147 150 156 165 170 181 202 208
86 90 94 95 101 107 106 102 100 104 102 105 110 115 120 120 119 113 106 104 102 103 92 95 89 82 82 92 120 114 119 129 134 126 130 126 124 127 123 137 147 158 168 179 173 188 203 202 199
91 91 95 98 104 107 101 96 93 91 100 111 116 122 124 125 119 111 105 107 112 106 95 86 93 79 58 60 81 103 102 109 107 108 97 99 87 82 102 127 149 162 163 170 170 183 189 194 165
99 104 101 104 105 99 98 92 96 99 108 116 121 124 129 127 121 113 111 110 113 110 103 95 89 85 79 56 25 85 93 94 101 96 83 88 103 103 110 103 108 122 144 160 178 153 130 88 67
137 124 121 118 114 111 105 104 105 112 120 123 126 130 129 122 119 118 116 113 115 114 109 108 108 101 95 98 48 53 85 96 90 91 86 90 92 93 112 135 112 118 140 131 139 130 132 138 126
124 114 120 141 140 126 121 115 118 129 132 134 137 138 134 129 126 125 124 125 121 119 118 124 126 113 103 96 68 84 94 103 100 102 93 89 99 113 126 149 156 177 159 152 147 162 147 149 152
125 154 185 173 157 145 145 129 140 145 144 143 146 145 143 137 137 133 129 127 122 123 119 125 121 123 122 104 32 38 60 90 96 103 106 106 113 123 158 127 130 187 176 159 137 133 116 129 133
192 207 207 185 163 148 153 139 146 155 153 152 155 153 151 150 148 140 139 138 130 127 126 120 98 115 121 121 122 106 88 82 87 97 107 116 108 104 107 88 55 282 115 93 131 125 140 144 138
209 205 210 183 155 161 150 143 155 166 162 161 163 160 158 157 156 150 145 139 135 132 133 131 124 113 118 116 99 71 81 98 93 89 93 97 85 64 48 98 45 4 66 57 67 90 126 159 154
222 236 225 152 137 173 169 162 163 169 170 165 166 165 164 161 156 154 152 148 144 140 142 142 136 127 127 120 124 107 111 99 107 118 97 90 63 64 67 42 103 85 95 83 90 103 193 169 136
223 229 232 160 160 183 200 184 165 169 177 171 168 166 165 160 157 157 157 156 150 147 147 147 149 146 149 141 153 172 158 175 130 87 89 85 54 30 60 62 58 74 110 95 45 90 313 222 165
230 231 226 230 207 198 200 211 195 179 177 174 171 170 168 167 164 164 166 163 158 157 161 161 151 142 150 159 170 154 116 300 98 112 116 97 89 83 37 37 32 18 90 93 108 83 325 263 224
238 231 234 242 235 215 215 213 209 194 182 178 177 174 172 170 167 168 171 168 164 162 161 150 147 147 155 172 181 183 165 156 154 136 126 119 77 65 59 49 44 21 56 69 2 75 335 305 290
243 241 245 251 254 246 228 228 204 193 188 183 180 179 176 171 168 170 171 166 167 167 161 154 151 153 158 181 182 201 178 167 138 119 116 128 124 118 71 59 54 52 58 58 27 33 21 5 3
237 242 251 252 256 257 236 226 195 187 195 187 179 178 176 171 170 169 167 163 168 166 162 157 153 158 165 179 174 168 150 81 89 119 149 193 155 116 73 67 44 59 58 47 41 350 40 28 4
224 233 246 248 247 251 249 233 178 179 187 181 177 173 172 171 169 165 164 164 167 168 164 155 154 160 167 171 164 157 150 160 154 202 181 243 125 110 81 63 61 51 38 45 41 15 30 23 3
223 227 232 244 240 241 247 232 165 159 162 165 166 163 167 168 165 164 165 166 170 170 162 155 156 163 167 166 163 160 171 189 171 195 346 35 41 89 109 98 103 84 36 31 40 7 41 45 7
228 228 237 251 256 253 226 197 170 157 152 156 159 160 167 170 167 165 166 169 170 168 162 157 157 163 166 165 160 156 161 175 115 124 121 54 50 112 105 107 101 90 73 40 29 56 45 45 26
236 238 239 246 258 261 236 210 192 169 165 164 163 160 164 170 168 163 163 163 166 166 158 156 158 162 165 167 173 165 165 167 146 121 101 75 54 57 81 99 104 99 94 81 38 61 70 47 34
220 230 240 254 260 262 255 226 168 181 169 168 164 162 167 168 164 161 162 162 160 161 160 158 158 164 169 167 164 154 162 167 169 164 133 115 104 99 89 90 90 100 100 98 68 14 99 70 43
226 228 229 236 248 258 271 258 191 175 164 161 164 161 161 161 160 158 159 158 160 161 160 160 163 169 170 163 160 162 161 165 175 171 153 145 141 137 126 125 120 136 117 113 108 331 62 75 61